This is the latest recevied weather packets stored in our database for station/object WA9NNN-10. If no packets are shown the sender has not sent any weather packets the latest 10 day(s).
| Time | Temp. | Humidity | Pressure | Rain* | Wind** | Luminosity | Snow |
|---|---|---|---|---|---|---|---|
| 1778008297 | 15° C | 36% | 1009 hPa | 0 mm | - | - | - |
| 1778007996 | 15° C | 36% | 1008.9 hPa | 0 mm | - | - | - |
| 1778007697 | 15° C | 35% | 1008.8 hPa | 0 mm | - | - | - |
| 1778007396 | 15° C | 35% | 1009 hPa | 0 mm | - | - | - |
| 1778007097 | 15.56° C | 35% | 1009 hPa | 0 mm | - | - | - |
| 1778006796 | 15.56° C | 34% | 1009 hPa | 0 mm | - | - | - |
| 1778006497 | 15.56° C | 34% | 1009.1 hPa | 0 mm | - | - | - |
| 1778006196 | 15.56° C | 35% | 1009.1 hPa | 0 mm | - | - | - |
| 1778005897 | 15.56° C | 33% | 1009.1 hPa | 0 mm | - | - | - |
| 1778005596 | 15.56° C | 32% | 1008.9 hPa | 0 mm | - | - | - |
| 1778005297 | 15.56° C | 34% | 1009 hPa | 0 mm | - | - | - |
| 1778004996 | 15.56° C | 32% | 1008.9 hPa | 0 mm | - | - | - |
| 1778004697 | 15.56° C | 33% | 1008.8 hPa | 0 mm | - | - | - |
| 1778004396 | 15.56° C | 33% | 1008.8 hPa | 0 mm | - | - | - |
| 1778004097 | 15.56° C | 32% | 1008.8 hPa | 0 mm | - | - | - |
| 1778003796 | 16.11° C | 32% | 1008.7 hPa | 0 mm | - | - | - |
| 1778003497 | 16.67° C | 33% | 1008.6 hPa | 0 mm | - | - | - |
| 1778003197 | 16.67° C | 33% | 1008.5 hPa | 0 mm | - | - | - |
| 1778002897 | 16.67° C | 33% | 1008.7 hPa | 0 mm | - | - | - |
| 1778002596 | 16.67° C | 36% | 1008.5 hPa | 0 mm | - | - | - |
| 1778002297 | 16.11° C | 37% | 1008.7 hPa | 0 mm | - | - | - |
| 1778001996 | 16.11° C | 38% | 1008.6 hPa | 0 mm | - | - | - |
| 1778001697 | 16.11° C | 36% | 1008.6 hPa | 0 mm | - | - | - |
| 1778001397 | 16.67° C | 38% | 1008.5 hPa | 0 mm | - | - | - |
| 1778001097 | 16.67° C | 37% | 1008.6 hPa | 0 mm | - | - | - |
* Rain latest hour (hover to see other rain measurements)
** Current wind speed in m/s (hover to see current wind gust speed)